Zurück zum Katalog

STARLINK-34728

AktivKommunikationSSO
NORAD 65455·PAYLOAD·🇺🇸 United States

Gestartet Sep 3, 2025 von Vandenberg Space Force Base

Loading…

Nächste Überflüge (nächste 24 Stunden)

TLE

AktuellSource: CelesTrak SupGP

Epoche: Sep 14, 2026, 14:09 UTC

1 65455C 25194X   26257.59006944  .00012328  00000+0  38267-3 0  2576
2 65455  97.2842 107.2858 0001929  87.0968 140.0964 15.33433883    15

Verfolge STARLINK-34728 in Echtzeit mit AllMySat

Download on the App Store